Weather History for Conway, SC

Change the Weather History Date:

Saturday, February 16, 2013

  Actual Average Record
Temperature  
Mean Temperature 41 °F -  
Max Temperature 50 °F 63 °F 64 °F (2012)
Min Temperature 32 °F 38 °F 32 °F (2011)
Degree Days  
Heating Degree Days 24    
Moisture  
Dew Point 36 °F    
Average Humidity 97    
Maximum Humidity 100    
Minimum Humidity 66    
Precipitation  
Precipitation 0.20 in - - ()
Sea Level Pressure  
Sea Level Pressure 29.90 in    
Wind  
Wind Speed 2 mph (NW)    
Max Wind Speed 13 mph    
Max Gust Speed 22 mph    
Visibility 6 miles    
Events Rain , Snow    
Averages and records for this station are not official NWS values.
T = Trace of Precipitation, MM = Missing Value Source: NWS Daily Summary

Daily Weather History Graph

Daily Weather History Graph

Search for Another Location

Airport:

Trip Planner

Search our weather history database for the weather conditions in past years. The results will help you decide how hot, cold, wet, or windy it might be!

Date:

Astronomy

Feb. 16, 2013 Rise Set
Actual Time 6:59 AM EST 6:01 PM EST
Civil Twilight 6:34 AM EST 6:27 PM EST
Nautical Twilight 6:04 AM EST 6:56 PM EST
Astronomical Twilight 5:36 AM EST 7:25 PM EST
Moon 10:32 AM EST (2/16) No Moon Set
Length of Visible Light 11h 53m
Length of Day
11h 02m
Waxing Crescent, 39% of the Moon is Illuminated
Feb 16
Waxing Crescent
Feb 17
First Quarter
Feb 25
Full
Mar 4
Last Quarter
Mar 11
New

Hourly Weather History & Observations

Time (EST) Temp. Windchill Dew Point Humidity Pressure Visibility Wind Dir Wind Speed Gust Speed Precip Events Conditions
12:15 AM 37.4 °F - 37.4 °F 100% 29.97 in 5.0 mi Calm Calm - N/A   Clear
12:35 AM 37.4 °F - 37.4 °F 100% 29.97 in 5.0 mi Calm Calm - N/A   Clear
12:55 AM 37.4 °F - 37.4 °F 100% 29.96 in 5.0 mi Calm Calm - N/A   Clear
1:15 AM 37.4 °F - 37.4 °F 100% 29.95 in 5.0 mi Calm Calm - N/A   Clear
1:35 AM 35.6 °F - 35.6 °F 100% 29.95 in 5.0 mi Calm Calm - N/A   Clear
1:55 AM 35.6 °F - 35.6 °F 100% 29.94 in 5.0 mi Calm Calm - N/A   Clear
2:15 AM 35.6 °F - 35.6 °F 100% 29.94 in 5.0 mi Calm Calm - N/A   Clear
2:35 AM 35.6 °F - 35.6 °F 100% 29.94 in 7.0 mi Calm Calm - N/A   Clear
2:55 AM 35.6 °F - 35.6 °F 100% 29.94 in 7.0 mi Calm Calm - N/A   Clear
3:15 AM 35.6 °F - 35.6 °F 100% 29.93 in 5.0 mi Calm Calm - N/A   Clear
3:35 AM 37.4 °F - 37.4 °F 100% 29.92 in 7.0 mi Calm Calm - N/A   Clear
3:55 AM 37.4 °F - 37.4 °F 100% 29.91 in 5.0 mi Calm Calm - N/A   Clear
4:15 AM 39.2 °F - 39.2 °F 100% 29.91 in 7.0 mi Calm Calm - N/A   Clear
4:35 AM 37.4 °F - 37.4 °F 100% 29.91 in 7.0 mi Calm Calm - N/A   Clear
4:55 AM 37.4 °F - 37.4 °F 100% 29.91 in 5.0 mi Calm Calm - N/A   Clear
5:15 AM 37.4 °F - 37.4 °F 100% 29.90 in 7.0 mi Calm Calm - N/A   Clear
5:35 AM 37.4 °F - 37.4 °F 100% 29.90 in 5.0 mi Calm Calm - N/A   Clear
5:55 AM 35.6 °F - 35.6 °F 100% 29.89 in 1.2 mi Calm Calm - N/A   Unknown
6:15 AM 35.6 °F - 35.6 °F 100% 29.89 in 1.0 mi Calm Calm - N/A Snow Light Snow
6:35 AM 35.6 °F - 35.6 °F 100% 29.89 in 3.0 mi Calm Calm - N/A   Clear
6:55 AM 35.6 °F - 35.6 °F 100% 29.89 in 4.0 mi Calm Calm - N/A   Clear
7:15 AM 33.8 °F - 33.8 °F 100% 29.89 in 4.0 mi Calm Calm - N/A   Clear
7:35 AM 35.6 °F - 35.6 °F 100% 29.89 in 5.0 mi Calm Calm - N/A   Clear
7:55 AM 37.4 °F - 37.4 °F 100% 29.89 in 4.0 mi Calm Calm - N/A   Clear
8:15 AM 41.0 °F 38.0 °F 41.0 °F 100% 29.89 in 7.0 mi NNE 4.6 mph - N/A   Clear
8:35 AM 42.8 °F 41.1 °F 42.8 °F 100% 29.89 in 5.0 mi North 3.5 mph - N/A   Clear
8:55 AM 44.6 °F 40.2 °F 41.0 °F 87% 29.89 in 5.0 mi North 8.1 mph - N/A   Clear
9:15 AM 44.6 °F 39.7 °F 41.0 °F 87% 29.89 in 5.0 mi North 9.2 mph - N/A   Haze
9:35 AM 46.4 °F 42.4 °F 39.2 °F 76% 29.89 in 7.0 mi North 8.1 mph - N/A   Clear
9:55 AM 46.4 °F 41.9 °F 37.4 °F 71% 29.88 in 7.0 mi North 9.2 mph 17.3 mph N/A   Clear
10:15 AM 48.2 °F - 37.4 °F 66% 29.88 in 7.0 mi NNE 12.7 mph - N/A   Clear
10:35 AM 50.0 °F - 39.2 °F 66% 29.87 in 7.0 mi NNE 11.5 mph - N/A   Clear
1:15 PM 44.6 °F 40.2 °F 37.4 °F 76% 29.83 in 10.0 mi NNW 8.1 mph - N/A Rain Light Rain
1:35 PM 42.8 °F 37.5 °F 35.6 °F 76% 29.84 in 7.0 mi WNW 9.2 mph - N/A   Overcast
1:55 PM 41.0 °F 38.0 °F 35.6 °F 81% 29.85 in 10.0 mi NW 4.6 mph - N/A Rain Light Rain
2:15 PM 37.4 °F 32.1 °F 37.4 °F 100% 29.86 in 7.0 mi NW 6.9 mph 21.9 mph 0.01 in Rain Rain
2:35 PM 35.6 °F 29.9 °F 35.6 °F 100% 29.86 in 5.0 mi NNW 6.9 mph 16.1 mph 0.04 in Rain Rain
2:55 PM 35.6 °F 31.7 °F 35.6 °F 100% 29.86 in 10.0 mi NNW 4.6 mph - 0.05 in Rain Light Rain
3:15 PM 37.4 °F 34.9 °F 37.4 °F 100% 29.86 in 10.0 mi NW 3.5 mph - 0.01 in Rain Light Rain
3:35 PM 37.4 °F 32.8 °F 37.4 °F 100% 29.86 in 10.0 mi NW 5.8 mph - 0.02 in Rain Light Rain
3:55 PM 37.4 °F 34.9 °F 37.4 °F 100% 29.86 in 10.0 mi NW 3.5 mph - 0.03 in Rain Light Rain
4:15 PM 37.4 °F 34.9 °F 37.4 °F 100% 29.86 in 10.0 mi NW 3.5 mph - N/A Rain Rain
4:35 PM 37.4 °F 32.8 °F 37.4 °F 100% 29.83 in 10.0 mi NNE 5.8 mph - 0.01 in Rain Light Rain
4:55 PM 37.4 °F 33.8 °F 37.4 °F 100% 29.81 in 7.0 mi NNE 4.6 mph - 0.01 in   Overcast
5:15 PM 37.4 °F 34.9 °F 37.4 °F 100% 29.85 in 5.0 mi West 3.5 mph - N/A   Overcast
5:35 PM 37.4 °F 33.8 °F 37.4 °F 100% 29.85 in 5.0 mi WNW 4.6 mph - N/A   Overcast
5:55 PM 37.4 °F 34.9 °F 37.4 °F 100% 29.86 in 7.0 mi WNW 3.5 mph - N/A   Overcast
6:15 PM 37.4 °F 34.9 °F 37.4 °F 100% 29.87 in 7.0 mi WNW 3.5 mph - N/A   Overcast
6:35 PM 37.4 °F 34.9 °F 37.4 °F 100% 29.87 in 7.0 mi NW 3.5 mph - N/A   Overcast
6:55 PM 37.4 °F - 37.4 °F 100% 29.87 in 7.0 mi Calm Calm - N/A   Overcast
7:15 PM 37.4 °F - 37.4 °F 100% 29.87 in 7.0 mi Calm Calm - N/A   Overcast
7:35 PM 37.4 °F - 37.4 °F 100% 29.88 in 7.0 mi Calm Calm - N/A   Overcast
7:55 PM 37.4 °F - 37.4 °F 100% 29.88 in 7.0 mi Calm Calm - N/A   Overcast
8:15 PM 37.4 °F - 37.4 °F 100% 29.89 in 7.0 mi Calm Calm - 0.01 in Rain Rain
8:35 PM 35.6 °F 29.9 °F 35.6 °F 100% 29.91 in 2.5 mi West 6.9 mph - 0.07 in Rain Rain
8:55 PM 33.8 °F - 33.8 °F 100% 29.90 in 3.0 mi Calm Calm - 0.10 in Snow Light Snow
9:15 PM 33.8 °F - 33.8 °F 100% 29.90 in 4.0 mi Calm Calm - N/A   Overcast
9:35 PM 32.0 °F 28.7 °F 32.0 °F 100% 29.92 in 1.5 mi WNW 3.5 mph - 0.01 in Snow Light Snow
9:55 PM 32.0 °F - 32.0 °F 100% 29.93 in 1.0 mi Calm Calm - 0.01 in Snow Snow
10:15 PM 32.0 °F 25.6 °F 32.0 °F 100% 29.96 in 1.0 mi NNW 6.9 mph - N/A Snow Snow
10:35 PM 32.0 °F - 32.0 °F 100% 29.96 in 1.2 mi Calm Calm - N/A Snow Light Snow
10:55 PM 32.0 °F 26.4 °F 32.0 °F 100% 29.97 in 1.5 mi NW 5.8 mph - N/A Snow Light Snow
11:15 PM 32.0 °F 27.5 °F 32.0 °F 100% 29.97 in 7.0 mi West 4.6 mph - N/A   Overcast
11:35 PM 32.0 °F 25.6 °F 32.0 °F 100% 29.97 in 7.0 mi West 6.9 mph - N/A   Overcast
11:55 PM 33.8 °F 29.6 °F 32.0 °F 93% 29.97 in 7.0 mi NW 4.6 mph - N/A   Overcast